Погода в Тарбагатае

Россия / Республика Бурятия     51°28′53″N   107°21′37″E
темп.,
°C
ветер,
м/с
пор.,
м/с
влажн.,
%
обл.,
%
осадки,
мм/ч
давл.,
гПа
погр.,
м
15 апреля, чт
чт1523:00−3зюз226646 0.0 101818
02:00−4юз22755 0.0 101721
05:00−5юз228467 0.0 101613
08:00−2юз1270100 0.0 1015321
11:00+2з1343100 0.0 10141175
14:00+5зсз4531100 0.1 10122313
17:00+4зсз564697 0.3 10141628
20:00+1сз41170100 0.6 10171340
16 апреля, пт
пт1623:00−2зсз35835 0.1 1021115
02:00−4зсз34844 0.1 102387
05:00−5з228470 0.0 102532
08:00−2з356397 0.0 1026527
11:00+3з45369 0.0 10241346
14:00+7зюз452513 0.0 10211636
17:00+9з452516 0.0 10181492
20:00+3ю11395 0.0 101710
17 апреля, сб
сб1723:00+1ююв22405 0.0 101711
02:000ю224514 0.0 101611
05:00−2ю22535 0.0 101511
08:00+3ююз23425 0.0 1014288
11:00+9юз45335 0.0 1010888
14:00+14зюз44262 0.0 10071267
17:00+15зсз34255 0.0 10051503
20:00+8с22455 0.0 100610
18 апреля, вс
вс1823:00+6зсз225612 0.0 100812
02:00+2зсз228825 0.0 101134
05:000с2290100 0.0 101247
08:00+2ссв247655 0.0 1012458
11:00+6с4453100 0.0 1010931
14:00+8с764889 0.0 10111330
17:00+6с785073 0.0 10141192
20:00+3ссз2262100 0.0 101939
19 апреля, пн
пн1923:000з11797 0.0 102110
02:00−2зюз11845 0.0 102310
05:00−2зсз0179100 0.0 102310
08:00+1в116349 0.0 1023313
11:00+7ю3527100 0.0 10181541
14:00+11ююз47265 0.1 10141755
17:00+13зюз56285 0.0 10111480
20:00+7ююв224298 0.0 101110